Location: Unspecified
(0.0000°N, 0.0000°E)
Time: 01:24:37
(UTC+00:00)

N. Korean satellite - Pass Details

Date: 22 October 2017
Orbit: 459 x 517 km, 97.2° (Epoch: 19 October)

Event Time Altitude Azimuth Distance (km) Brightness Sun altitude
Rises 18:28:54 0° 171° (S) 2,579 10.3 -10.9°
Reaches altitude 10° 18:31:00 10° 172° (S) 1,684 9.4 -11.4°
Maximum altitude 18:34:37 79° 258° (WSW) 497 6.7 -12.3°
Drops below altitude 10° 18:38:09 10° 346° (NNW) 1,642 9.3 -13.2°
Sets 18:40:10 0° 347° (NNW) 2,507 10.2 -13.7°
